PAKSAT-1R

Last updated on Mon Sep 15 2025 00:02:47 GMT+0000 (Coordinated Universal Time)

1 37779U 11042A 25257.22614089 .00000142 00000+0 00000+0 0 9999 2 37779 0.0379 92.9341 0001550 65.9962 313.9034 1.00275902 51713
UTC large
Height (km)
Speed (km/s)
/
Latitude / Longitude
Inclination (degrees)
Orbital Period (minutes)
Azimuth
Elevation
Range (km)
Doppler Factor

Next 0 passes for location: London (51.5072 / 0.1276)

Sorry there are no passes over London.